[[{"header":{"parameterUnit":"m.s-1","parameterCategory":1,"la1":30.2991,"la2":30.254,"lo1":-89.0895,"lo2":-89.0444,"dy":0.0017,"dx":0.0017,"nx":28,"ny":28,"refTime":"2025-01-07T09:00:00:Z","depth":0,"parameterNumber":2,"parameterNumberName":"U-component_of_WINDS"},"data":[0,0,0,0,0,0,0,0,0,0,0,0,0,0,0,0,0,0,0,0,0,0,0,0,0,0,0,0,0,0,0,0,0,0,0,0,0,0,0,0,0,0,0,0,0,0,0,0,0,0,0,0,0,0,0,0,0,0,1.8907,1.8908,0,1.8949,1.8949,1.895,1.8938,1.8937,1.8936,1.8935,1.8978,1.8979,1.8981,0,0,0,0,0,0,0,0,0,0,0,0,0,1.8819,1.8821,1.8907,1.8908,1.8908,1.8949,1.8949,1.895,1.8938,1.8937,1.8936,1.8935,1.8977,1.8979,1.8981,0,0,0,0,0,0,0,0,0,0,0,0,0,1.8859,1.8821,1.8907,1.8907,1.8908,1.8948,1.8949,1.895,1.8938,1.8937,1.8936,1.8934,1.8976,1.8979,1.8982,1.9025,0,0,1.8991,1.8992,0,0,0,0,0,0,0,0,1.8856,1.8862,1.8907,1.8907,1.8908,1.8937,1.8934,1.8975,1.8938,1.8927,1.8935,1.8934,1.8965,1.8969,1.8979,1.9027,1.9029,1.8991,1.8993,1.8994,1.8995,0,0,0,0,0,0,0,1.8854,1.886,1.8924,1.8907,1.8908,1.8906,1.891,1.8941,1.8952,1.8927,1.8927,1.8932,1.8965,1.8976,1.898,1.9029,1.8991,1.8993,1.8995,1.8996,1.9117,1.9118,0,0,0,0,0,0,1.885,1.8858,1.8922,1.8925,1.8878,1.8908,1.8913,1.8929,1.8952,1.8954,1.8933,1.8931,1.8972,1.8977,1.8982,1.9035,1.8994,1.8996,1.8998,1.9115,1.9117,1.9119,0,0,0,0,0,0,1.8849,1.8856,1.8921,1.8891,1.8899,1.8911,1.8929,1.893,1.8942,1.8956,1.8958,1.8942,1.8971,1.8978,1.9015,1.9036,1.8998,1.9,1.9114,1.9116,1.9118,1.9142,0,0,0,0,0,0,1.8846,1.8856,1.8872,1.8892,1.8901,1.8953,1.893,1.8932,1.8947,1.8945,1.8966,1.8968,1.8971,1.9011,1.9018,1.904,1.9003,1.9112,1.9115,1.9117,1.9139,1.9144,1.9149,0,0,0,0,0,1.8843,1.8876,1.8873,1.888,1.8921,1.8954,1.8959,1.8962,1.8948,1.8965,1.8975,1.8967,1.9033,1.9014,1.9022,1.9045,1.911,1.9114,1.9117,1.9137,1.9143,1.9149,0,0,0,0,0,0,1.8858,1.8879,1.8875,1.8915,1.8933,1.8952,1.8973,1.8969,1.899,1.8988,1.899,1.8995,1.9034,1.9043,1.9022,1.909,1.907,1.9075,1.9082,1.9088,1.9093,1.909,1.9005,0,0,0,0,0,1.8866,1.8891,1.8908,1.8942,1.8951,1.8961,1.8975,1.8976,1.8994,1.9001,1.9014,1.9032,1.9057,1.9073,1.9097,1.914,1.9146,1.916,1.9165,1.9169,1.9174,1.92,1.9207,1.913,1.913,1.913,0,0,1.8883,1.8897,1.8912,1.8945,1.8959,1.8985,1.8967,1.8995,1.9014,1.9005,1.9042,1.9052,1.9072,1.9114,1.9132,1.9123,1.9196,1.9174,1.9177,1.9179,1.9204,1.9211,1.9218,1.9132,1.9132,1.9131,0,0,1.8927,1.894,1.897,1.8985,1.9006,1.9013,1.902,1.904,1.9047,1.9083,1.9078,1.9102,1.9144,1.916,1.9173,1.9226,1.922,1.9233,1.9259,1.9285,1.9291,1.9296,1.9316,1.9323,1.9238,1.9238,1.9238,0,1.8945,1.8984,1.8987,1.9016,1.9031,1.9025,1.9057,1.9071,1.9099,1.911,1.9099,1.9154,1.9167,1.9213,1.9226,1.9236,1.9246,1.9231,1.929,1.9295,1.93,1.9319,1.9327,1.9239,1.9239,1.9239,1.9239,0,1.9005,1.9033,1.9055,1.9083,1.9101,1.9131,1.914,1.9157,1.9157,1.9165,1.9204,1.922,1.9248,1.9259,1.9258,1.9305,1.9299,1.9289,1.9269,1.9309,1.9327,1.9334,1.9241,1.9241,1.924,1.924,0,0,1.9059,1.909,1.9098,1.9111,1.9136,1.9157,1.9188,1.9215,1.9231,1.9251,1.9278,1.9315,1.9307,1.9322,1.9324,1.9346,1.9388,1.9333,1.9334,1.9344,1.9443,1.945,1.9459,1.9385,1.9386,1.9387,1.9441,0,1.9105,1.916,1.9164,1.9213,1.9239,1.9235,1.9262,1.9281,1.929,1.9313,1.9323,1.935,1.9336,1.9346,1.9367,1.9379,1.9408,1.9375,1.9411,1.9412,1.9406,1.9468,1.9476,1.9526,1.9448,1.9449,1.945,0,1.9167,1.919,1.9242,1.9264,1.9275,1.9299,1.9326,1.9349,1.937,1.9375,1.9394,1.9393,1.9426,1.9405,1.9451,1.9428,1.9444,1.9452,1.9454,1.9457,1.9434,1.9474,1.9541,1.9549,1.9461,1.946,1.9459,0,1.9202,1.9246,1.9283,1.9294,1.9321,1.9339,1.9351,1.9371,1.9388,1.9411,1.9423,1.945,1.9465,1.9486,1.9493,1.9477,1.954,1.9519,1.9546,1.9546,1.9559,1.9558,1.963,1.9568,1.9568,1.9567,1.9567,0,1.9254,1.9286,1.9299,1.9322,1.9359,1.9364,1.94,1.9411,1.943,1.9456,1.9453,1.9478,1.9486,1.9511,1.9517,1.9556,1.9562,1.9568,1.9569,1.9568,1.9568,1.9578,1.9575,1.9569,1.9569,1.9569,1.9568,0,1.9299,1.9309,1.9349,1.9372,1.9379,1.9405,1.9425,1.9447,1.9456,1.9489,1.9497,1.9512,1.9542,1.9552,1.9588,1.9592,1.9638,1.9635,1.963,1.9631,1.9657,1.9655,1.9739,1.9751,1.968,1.9681,1.9681,0,1.9332,1.9357,1.9383,1.94,1.9413,1.944,1.9458,1.9465,1.9484,1.9511,1.9531,1.9562,1.9586,1.9636,1.965,1.9679,1.9678,1.9705,1.9682,1.9681,1.9679,1.9678,1.9681,1.971,1.971,1.9711,1.9711,0,1.9389,1.9394,1.9419,1.9447,1.9469,1.9491,1.9512,1.9527,1.9537,1.9559,1.959,1.961,1.9648,1.9679,1.9708,1.9722,1.9719,1.9719,1.9727,1.9726,1.9723,1.9727,1.9643,1.9717,1.9716,1.9716,1.9716,1.9715,1.943,1.9452,1.9475,1.9504,1.9521,1.9542,1.9565,1.9578,1.9604,1.9636,1.9639,1.9674,1.9696,1.9736,1.9751,1.9779,1.9771,1.9782,1.9785,1.9787,1.979,1.9719,1.9784,1.9784,1.9784,1.9783,1.9783,0,1.9488,1.9503,1.953,1.9561,1.9584,1.958,1.9604,1.9624,1.9655,1.9676,1.9701,1.9739,1.9769,1.9786,1.9817,1.9836,1.9836,1.9844,1.9843,1.9846,1.9795,1.9785,1.9844,1.9844,1.9844,1.9844,1.9844,1.9844,1.9521,1.956,1.9567,1.9615,1.9629,1.9664,1.9678,1.9698,1.9715,1.9757,1.9783,1.9794,1.9814,1.9847,1.9875,1.9879,1.9891,1.9901,1.9904,1.9856,1.985,1.9844,1.9835,1.9903,1.9903,1.9954,1.9954,1.9954]},{"header":{"parameterUnit":"m.s-1","parameterCategory":1,"la1":30.2991,"la2":30.254,"lo1":-89.0895,"lo2":-89.0444,"dy":0.0017,"dx":0.0017,"nx":28,"ny":28,"refTime":"2025-01-07T09:00:00:Z","depth":0,"parameterNumber":3,"parameterNumberName":"V-component_of_WINDS"},"data":[0,0,0,0,0,0,0,0,0,0,0,0,0,0,0,0,0,0,0,0,0,0,0,0,0,0,0,0,0,0,0,0,0,0,0,0,0,0,0,0,0,0,0,0,0,0,0,0,0,0,0,0,0,0,0,0,0,0,-5.1413,-5.1414,0,-5.1507,-5.1508,-5.1509,-5.1503,-5.1502,-5.15,-5.1499,-5.159,-5.1594,-5.1598,0,0,0,0,0,0,0,0,0,0,0,0,0,-5.1224,-5.1228,-5.1413,-5.1414,-5.1415,-5.1507,-5.1508,-5.151,-5.1503,-5.1502,-5.15,-5.1498,-5.1589,-5.1594,-5.1598,0,0,0,0,0,0,0,0,0,0,0,0,0,-5.1311,-5.1229,-5.1413,-5.1423,-5.1425,-5.1507,-5.1508,-5.151,-5.1504,-5.1502,-5.1499,-5.1498,-5.1588,-5.1593,-5.1599,-5.1674,0,0,-5.1616,-5.1618,0,0,0,0,0,0,0,0,-5.1306,-5.1318,-5.1421,-5.1423,-5.1425,-5.1491,-5.1475,-5.1565,-5.1504,-5.1474,-5.1499,-5.1497,-5.1559,-5.1567,-5.1589,-5.1679,-5.1682,-5.1616,-5.162,-5.1622,-5.1624,0,0,0,0,0,0,0,-5.13,-5.1314,-5.145,-5.1422,-5.1425,-5.1422,-5.1432,-5.1492,-5.1526,-5.1476,-5.1476,-5.1487,-5.156,-5.1583,-5.1591,-5.1684,-5.1616,-5.1621,-5.1624,-5.1627,-5.1842,-5.1845,0,0,0,0,0,0,-5.1292,-5.1309,-5.1447,-5.1453,-5.136,-5.1427,-5.1439,-5.1472,-5.1526,-5.1532,-5.1489,-5.1487,-5.1575,-5.1584,-5.1594,-5.1687,-5.1622,-5.1627,-5.163,-5.184,-5.1843,-5.1845,0,0,0,0,0,0,-5.1288,-5.1305,-5.1443,-5.1381,-5.1398,-5.1433,-5.147,-5.1475,-5.1499,-5.1536,-5.1541,-5.1507,-5.1574,-5.1586,-5.1655,-5.169,-5.163,-5.1635,-5.1837,-5.1841,-5.1844,-5.1874,0,0,0,0,0,0,-5.1283,-5.1303,-5.1333,-5.1382,-5.1402,-5.1504,-5.1473,-5.1478,-5.1509,-5.1507,-5.1554,-5.156,-5.1573,-5.1647,-5.1661,-5.1697,-5.1639,-5.1834,-5.1839,-5.1843,-5.187,-5.1878,-5.1885,0,0,0,0,0,-5.1276,-5.1336,-5.1335,-5.1351,-5.144,-5.1506,-5.1517,-5.1532,-5.1512,-5.1542,-5.1566,-5.1559,-5.1684,-5.1654,-5.1669,-5.1708,-5.1832,-5.1837,-5.1843,-5.1866,-5.1876,-5.1885,0,0,0,0,0,0,-5.1288,-5.1342,-5.1341,-5.1419,-5.1458,-5.1505,-5.1543,-5.1542,-5.1586,-5.1582,-5.1597,-5.1608,-5.1678,-5.17,-5.1665,-5.1785,-5.1755,-5.1764,-5.1768,-5.1778,-5.1785,-5.1778,-5.1644,0,0,0,0,0,-5.13,-5.1351,-5.1395,-5.1459,-5.1479,-5.1508,-5.1537,-5.1546,-5.1586,-5.1602,-5.1631,-5.1669,-5.1718,-5.1749,-5.1795,-5.1873,-5.1884,-5.1907,-5.1915,-5.1921,-5.1928,-5.1972,-5.1983,-5.1863,-5.1863,-5.1863,0,0,-5.1324,-5.1361,-5.1391,-5.1462,-5.1494,-5.1545,-5.1521,-5.1576,-5.1614,-5.1609,-5.1677,-5.17,-5.1744,-5.1818,-5.1852,-5.1839,-5.1964,-5.1928,-5.1932,-5.1936,-5.1979,-5.199,-5.2,-5.1867,-5.1866,-5.1865,0,0,-5.1395,-5.1428,-5.1486,-5.1519,-5.1567,-5.1587,-5.16,-5.1648,-5.1664,-5.1733,-5.1731,-5.1776,-5.1858,-5.189,-5.1917,-5.2003,-5.1999,-5.2018,-5.2057,-5.21,-5.2109,-5.2118,-5.2149,-5.216,-5.2025,-5.2025,-5.2025,0,-5.1419,-5.1498,-5.1515,-5.1571,-5.1603,-5.1604,-5.1663,-5.1693,-5.1753,-5.1775,-5.1759,-5.1865,-5.1894,-5.1976,-5.1998,-5.2019,-5.2036,-5.2012,-5.2107,-5.2116,-5.2124,-5.2154,-5.2166,-5.2027,-5.2027,-5.2027,-5.2026,0,-5.1525,-5.158,-5.162,-5.1682,-5.1718,-5.1775,-5.18,-5.1835,-5.1841,-5.1861,-5.1932,-5.1968,-5.2022,-5.2042,-5.2047,-5.2126,-5.2117,-5.2104,-5.2074,-5.2137,-5.2166,-5.2177,-5.203,-5.2029,-5.2029,-5.2028,0,0,-5.1604,-5.1677,-5.1691,-5.172,-5.1775,-5.1817,-5.1875,-5.193,-5.196,-5.2002,-5.205,-5.2122,-5.2111,-5.2142,-5.2151,-5.2188,-5.2256,-5.2171,-5.2172,-5.2186,-5.2346,-5.2355,-5.2368,-5.2253,-5.2256,-5.2257,-5.2342,0,-5.1681,-5.1785,-5.1803,-5.1893,-5.1944,-5.1947,-5.1997,-5.2036,-5.2057,-5.2103,-5.2126,-5.2177,-5.2158,-5.2177,-5.2215,-5.224,-5.2288,-5.2234,-5.2298,-5.23,-5.2287,-5.2383,-5.2393,-5.2471,-5.2353,-5.2355,-5.2357,0,-5.1784,-5.1832,-5.1928,-5.1979,-5.2001,-5.2046,-5.2099,-5.2143,-5.2187,-5.22,-5.2236,-5.2242,-5.2301,-5.227,-5.2351,-5.2314,-5.2342,-5.2358,-5.2361,-5.2368,-5.2332,-5.2392,-5.2496,-5.2508,-5.2374,-5.2373,-5.2372,0,-5.1834,-5.1922,-5.1991,-5.2016,-5.2076,-5.2108,-5.2134,-5.2177,-5.221,-5.2256,-5.2277,-5.2329,-5.2357,-5.2397,-5.2416,-5.2391,-5.2497,-5.2467,-5.2509,-5.2509,-5.253,-5.2529,-5.2641,-5.2548,-5.2548,-5.2548,-5.2547,0,-5.1918,-5.1976,-5.2015,-5.2057,-5.2123,-5.2144,-5.2208,-5.2233,-5.2272,-5.2319,-5.2324,-5.2368,-5.239,-5.2437,-5.2453,-5.2519,-5.2531,-5.2543,-5.2546,-5.2542,-5.2541,-5.256,-5.2555,-5.2551,-5.255,-5.2549,-5.2549,0,-5.1983,-5.2011,-5.2087,-5.2139,-5.2154,-5.22,-5.2244,-5.2286,-5.2308,-5.2368,-5.2383,-5.2417,-5.2473,-5.2496,-5.2564,-5.2574,-5.265,-5.2649,-5.2636,-5.2637,-5.2678,-5.2674,-5.2806,-5.2825,-5.272,-5.2721,-5.2721,0,-5.2035,-5.2081,-5.2139,-5.2172,-5.22,-5.2253,-5.2287,-5.231,-5.2345,-5.2401,-5.2435,-5.2492,-5.2539,-5.2628,-5.2658,-5.271,-5.271,-5.2753,-5.2718,-5.2714,-5.2712,-5.2709,-5.2714,-5.2759,-5.276,-5.2761,-5.2762,0,-5.2124,-5.2136,-5.2187,-5.2244,-5.2285,-5.233,-5.2374,-5.24,-5.2429,-5.2469,-5.2528,-5.2564,-5.2635,-5.2691,-5.2746,-5.2772,-5.2772,-5.2773,-5.2786,-5.2783,-5.2773,-5.278,-5.2654,-5.277,-5.2769,-5.2768,-5.2768,-5.2768,-5.2185,-5.2226,-5.2275,-5.2331,-5.2367,-5.2408,-5.2451,-5.248,-5.2529,-5.2591,-5.26,-5.2663,-5.2708,-5.2782,-5.281,-5.2859,-5.2848,-5.2866,-5.287,-5.2875,-5.2878,-5.2766,-5.2869,-5.2869,-5.2868,-5.2868,-5.2868,0,-5.2275,-5.2307,-5.2359,-5.2421,-5.2466,-5.2465,-5.2514,-5.2551,-5.2607,-5.265,-5.2697,-5.2765,-5.282,-5.2855,-5.2911,-5.2943,-5.2945,-5.2957,-5.2955,-5.2961,-5.2884,-5.2868,-5.2955,-5.2955,-5.2955,-5.2955,-5.2955,-5.2955,-5.2327,-5.2398,-5.2416,-5.2505,-5.2536,-5.26,-5.2628,-5.2666,-5.27,-5.2777,-5.2824,-5.2848,-5.2888,-5.2947,-5.2997,-5.3006,-5.3026,-5.304,-5.3048,-5.2975,-5.2966,-5.2957,-5.2943,-5.3044,-5.3044,-5.3121,-5.3122,-5.3122]}]]